[[{"header":{"parameterUnit":"m.s-1","parameterCategory":1,"la1":30.2991,"la2":30.254,"lo1":-89.0895,"lo2":-89.0444,"dy":0.0017,"dx":0.0017,"nx":28,"ny":28,"refTime":"2023-10-20T21:00:00:Z","depth":0,"parameterNumber":2,"parameterNumberName":"U-component_of_WINDS"},"data":[0,0,0,0,0,0,0,0,0,0,0,0,0,0,0,0,0,0,0,0,0,0,0,0,0,0,0,0,0,0,0,0,0,0,0,0,0,0,0,0,0,0,0,0,0,0,0,0,0,0,0,0,0,0,0,0,0,0,3.7561,3.7562,0,3.7626,3.7627,3.7628,3.7613,3.7612,3.7611,3.761,3.7678,3.7681,3.7684,0,0,0,0,0,0,0,0,0,0,0,0,0,3.7428,3.743,3.7561,3.7562,3.7563,3.7626,3.7627,3.7628,3.7614,3.7612,3.7611,3.7609,3.7677,3.768,3.7684,0,0,0,0,0,0,0,0,0,0,0,0,0,3.7489,3.7431,3.7561,3.7563,3.7564,3.7626,3.7627,3.7628,3.7614,3.7612,3.761,3.7608,3.7676,3.768,3.7684,3.7749,0,0,3.7698,3.77,0,0,0,0,0,0,0,0,3.7485,3.7493,3.7562,3.7563,3.7564,3.761,3.7605,3.7669,3.7614,3.7595,3.761,3.7608,3.7657,3.7663,3.7679,3.7752,3.7755,3.7698,3.7701,3.7703,3.7704,0,0,0,0,0,0,0,3.7481,3.7491,3.7587,3.7563,3.7564,3.7562,3.7569,3.7617,3.7635,3.7597,3.7596,3.7603,3.7657,3.7675,3.768,3.7756,3.7698,3.7702,3.7705,3.7707,3.7889,3.7891,0,0,0,0,0,0,3.7475,3.7487,3.7585,3.7589,3.7519,3.7566,3.7573,3.7597,3.7635,3.7639,3.7605,3.7603,3.7668,3.7675,3.7683,3.7764,3.7703,3.7707,3.771,3.7887,3.789,3.7892,0,0,0,0,0,0,3.7473,3.7484,3.7582,3.7538,3.755,3.757,3.7597,3.7599,3.7617,3.7641,3.7645,3.762,3.7667,3.7677,3.7733,3.7766,3.7709,3.7713,3.7884,3.7888,3.7891,3.7924,0,0,0,0,0,0,3.7469,3.7483,3.7507,3.7538,3.7553,3.7631,3.7599,3.7602,3.7625,3.7622,3.7656,3.766,3.7666,3.7727,3.7738,3.7771,3.7717,3.7882,3.7886,3.789,3.792,3.7928,3.7935,0,0,0,0,0,3.7464,3.7513,3.7508,3.752,3.7582,3.7632,3.7641,3.7647,3.7627,3.7652,3.7668,3.7659,3.776,3.7733,3.7745,3.778,3.788,3.7885,3.7889,3.7917,3.7926,3.7935,0,0,0,0,0,0,3.7484,3.7517,3.7512,3.7572,3.76,3.763,3.7661,3.7656,3.769,3.7686,3.7693,3.7701,3.7759,3.7775,3.7744,3.7846,3.7817,3.7825,3.7834,3.7843,3.785,3.7846,3.772,0,0,0,0,0,3.7496,3.7533,3.756,3.7611,3.7625,3.7641,3.7663,3.7665,3.7694,3.7706,3.7726,3.7755,3.7794,3.7819,3.7855,3.7922,3.7931,3.7952,3.7959,3.7965,3.7973,3.8012,3.8023,3.7908,3.7908,3.7908,0,0,3.752,3.7543,3.7566,3.7616,3.7637,3.7677,3.7651,3.7693,3.7724,3.7712,3.7768,3.7784,3.7817,3.788,3.7908,3.7895,3.8006,3.7972,3.7976,3.798,3.8019,3.803,3.8039,3.7911,3.7911,3.791,0,0,3.7585,3.7605,3.7651,3.7674,3.7707,3.7718,3.7729,3.7761,3.7771,3.7827,3.782,3.7857,3.7922,3.7947,3.7969,3.8046,3.804,3.8058,3.8097,3.8136,3.8145,3.8153,3.8184,3.8195,3.8065,3.8065,3.8065,0,3.7611,3.7671,3.7676,3.772,3.7744,3.7736,3.7784,3.7806,3.7849,3.7866,3.785,3.7935,3.7956,3.8027,3.8046,3.8062,3.8077,3.8055,3.8143,3.8151,3.8159,3.8189,3.82,3.8067,3.8067,3.8067,3.8066,0,3.7703,3.7744,3.7778,3.7821,3.7848,3.7894,3.7908,3.7935,3.7936,3.7949,3.8008,3.8033,3.8077,3.8093,3.8093,3.8165,3.8156,3.8141,3.8113,3.8172,3.82,3.8211,3.807,3.8069,3.8069,3.8068,0,0,3.7782,3.7829,3.7842,3.7863,3.79,3.7933,3.798,3.8023,3.8047,3.8078,3.8119,3.8176,3.8164,3.8188,3.8192,3.8226,3.829,3.8208,3.8209,3.8225,3.8374,3.8386,3.8399,3.8286,3.8288,3.8289,3.8372,0,3.7853,3.7935,3.7942,3.8017,3.8057,3.8052,3.8093,3.8121,3.8135,3.8172,3.8188,3.823,3.8209,3.8224,3.8257,3.8275,3.8321,3.8269,3.8326,3.8328,3.8321,3.8413,3.8426,3.8502,3.8383,3.8385,3.8386,0,3.7946,3.7981,3.806,3.8095,3.8112,3.8149,3.8191,3.8225,3.8259,3.8267,3.8295,3.8295,3.8345,3.8314,3.8385,3.835,3.8374,3.8387,3.839,3.8397,3.8362,3.8426,3.8527,3.8539,3.8403,3.8401,3.84,0,3.8,3.8067,3.8124,3.8141,3.8182,3.8209,3.8228,3.8259,3.8285,3.8322,3.8339,3.8381,3.8404,3.8438,3.845,3.8425,3.8522,3.849,3.8532,3.8532,3.8554,3.8553,3.8663,3.8565,3.8565,3.8565,3.8564,0,3.808,3.8129,3.8149,3.8184,3.824,3.8248,3.8304,3.8321,3.835,3.839,3.8386,3.8424,3.8436,3.8477,3.8486,3.8546,3.8556,3.8566,3.8568,3.8567,3.8566,3.8584,3.858,3.8568,3.8567,3.8567,3.8566,0,3.815,3.8164,3.8227,3.8261,3.8271,3.8312,3.8342,3.8377,3.8391,3.8442,3.8454,3.8476,3.8524,3.8539,3.8596,3.8603,3.8673,3.8669,3.8662,3.8663,3.8705,3.8702,3.8833,3.8852,3.8739,3.874,3.8741,0,3.8201,3.8239,3.8278,3.8305,3.8325,3.8367,3.8395,3.8405,3.8434,3.8476,3.8507,3.8554,3.8593,3.867,3.8692,3.8736,3.8736,3.8778,3.8742,3.8741,3.874,3.8738,3.8744,3.8786,3.8787,3.8788,3.8788,0,3.8291,3.8297,3.8336,3.8379,3.8412,3.8447,3.848,3.8502,3.8517,3.855,3.8599,3.8629,3.8689,3.8737,3.8783,3.8803,3.88,3.88,3.8812,3.8813,3.8808,3.8814,3.8684,3.8797,3.8796,3.8795,3.8795,3.8795,3.8355,3.839,3.8424,3.8469,3.8495,3.8527,3.8563,3.8582,3.8623,3.8672,3.8676,3.873,3.8765,3.8826,3.8849,3.8893,3.8881,3.8898,3.8903,3.8908,3.8913,3.88,3.8901,3.89,3.89,3.89,3.89,0,3.8447,3.8469,3.851,3.8558,3.8594,3.8587,3.8624,3.8655,3.8703,3.8735,3.8774,3.8832,3.8879,3.8906,3.8954,3.8983,3.8983,3.8996,3.8995,3.9001,3.8919,3.8905,3.8996,3.8996,3.8996,3.8996,3.8995,3.8995,3.8499,3.856,3.857,3.8644,3.8666,3.8719,3.8741,3.8772,3.8798,3.8863,3.8903,3.892,3.8951,3.9002,3.9046,3.9052,3.9071,3.9086,3.9092,3.9015,3.9006,3.8996,3.8983,3.9089,3.9089,3.917,3.9171,3.9171]},{"header":{"parameterUnit":"m.s-1","parameterCategory":1,"la1":30.2991,"la2":30.254,"lo1":-89.0895,"lo2":-89.0444,"dy":0.0017,"dx":0.0017,"nx":28,"ny":28,"refTime":"2023-10-20T21:00:00:Z","depth":0,"parameterNumber":3,"parameterNumberName":"V-component_of_WINDS"},"data":[0,0,0,0,0,0,0,0,0,0,0,0,0,0,0,0,0,0,0,0,0,0,0,0,0,0,0,0,0,0,0,0,0,0,0,0,0,0,0,0,0,0,0,0,0,0,0,0,0,0,0,0,0,0,0,0,0,0,0.964,0.964,0,0.9635,0.9635,0.9635,0.9608,0.9607,0.9606,0.9606,0.9601,0.9601,0.9602,0,0,0,0,0,0,0,0,0,0,0,0,0,0.9624,0.9624,0.964,0.964,0.964,0.9635,0.9635,0.9635,0.9608,0.9607,0.9606,0.9606,0.9601,0.9601,0.9602,0,0,0,0,0,0,0,0,0,0,0,0,0,0.9626,0.9625,0.964,0.9626,0.9624,0.9635,0.9635,0.9635,0.9608,0.9607,0.9606,0.9605,0.96,0.9601,0.9602,0.9626,0,0,0.9604,0.9604,0,0,0,0,0,0,0,0,0.9626,0.9627,0.9628,0.9627,0.9625,0.9621,0.9628,0.9632,0.9608,0.9614,0.9606,0.9605,0.9608,0.9608,0.961,0.9626,0.9626,0.9604,0.9605,0.9605,0.9605,0,0,0,0,0,0,0,0.9626,0.9627,0.9638,0.9628,0.9626,0.9619,0.9618,0.9629,0.9617,0.9614,0.9612,0.9611,0.9607,0.9609,0.9609,0.9626,0.9604,0.9605,0.9605,0.9605,0.966,0.9661,0,0,0,0,0,0,0.9628,0.9627,0.9638,0.9638,0.9623,0.962,0.9619,0.9624,0.9617,0.9615,0.9612,0.961,0.9608,0.9609,0.9609,0.9636,0.9605,0.9606,0.9606,0.9659,0.966,0.9661,0,0,0,0,0,0,0.9628,0.9629,0.9639,0.9632,0.9633,0.9622,0.9626,0.9624,0.9626,0.9616,0.9613,0.9616,0.9607,0.9608,0.9622,0.9635,0.9606,0.9607,0.9658,0.9659,0.9661,0.9691,0,0,0,0,0,0,0.9628,0.9629,0.9639,0.9632,0.9633,0.9652,0.9627,0.9625,0.9627,0.9624,0.9619,0.9617,0.9607,0.9621,0.9622,0.9636,0.9607,0.9656,0.9658,0.966,0.9689,0.9693,0.9697,0,0,0,0,0,0.9627,0.9648,0.964,0.9641,0.9645,0.9653,0.9653,0.9641,0.9628,0.9637,0.9631,0.9617,0.9634,0.9622,0.9624,0.9638,0.9655,0.9658,0.966,0.9687,0.9692,0.9697,0,0,0,0,0,0,0.9657,0.9647,0.9638,0.9657,0.9656,0.9648,0.966,0.9648,0.965,0.9648,0.9632,0.9631,0.9647,0.9644,0.9632,0.966,0.9642,0.9645,0.9662,0.9667,0.9671,0.9672,0.9608,0,0,0,0,0,0.9666,0.9674,0.9664,0.9683,0.9682,0.9671,0.9674,0.9665,0.9663,0.9662,0.9657,0.9655,0.966,0.9663,0.9667,0.9688,0.9686,0.9698,0.9702,0.9706,0.9708,0.9718,0.9723,0.9669,0.9669,0.9669,0,0,0.9685,0.968,0.9686,0.9688,0.9686,0.9694,0.9671,0.968,0.9685,0.9664,0.9676,0.9672,0.9669,0.9686,0.9693,0.9684,0.9723,0.9709,0.9712,0.9712,0.972,0.9726,0.973,0.967,0.967,0.967,0,0,0.9722,0.972,0.9734,0.9732,0.9729,0.9721,0.9725,0.9718,0.9714,0.9726,0.971,0.9715,0.9724,0.9722,0.9723,0.9758,0.9745,0.9759,0.9782,0.9791,0.9795,0.9799,0.981,0.9815,0.9762,0.9762,0.9762,0,0.9746,0.9757,0.9743,0.9753,0.9754,0.9734,0.9748,0.9747,0.9745,0.9746,0.9735,0.9745,0.9742,0.9757,0.9765,0.9767,0.9769,0.976,0.9796,0.9799,0.9802,0.9813,0.9818,0.9764,0.9763,0.9763,0.9763,0,0.9785,0.9793,0.9805,0.9803,0.9805,0.9817,0.9805,0.9809,0.9799,0.9792,0.9803,0.9798,0.98,0.9803,0.9794,0.9817,0.9811,0.9798,0.978,0.981,0.9819,0.9823,0.9766,0.9765,0.9765,0.9764,0,0,0.9843,0.9832,0.9837,0.9835,0.9829,0.9835,0.9845,0.9846,0.985,0.9849,0.9856,0.9863,0.9851,0.9851,0.9841,0.9849,0.9876,0.9835,0.9835,0.9842,0.9899,0.9909,0.9914,0.9867,0.9868,0.9868,0.9899,0,0.9878,0.9895,0.9882,0.9902,0.9908,0.9888,0.9897,0.9894,0.9887,0.9891,0.9883,0.9888,0.9872,0.9872,0.9879,0.9871,0.9887,0.9869,0.9873,0.9874,0.9874,0.9919,0.9929,0.9959,0.9903,0.9904,0.9904,0,0.9922,0.9922,0.9942,0.9933,0.9935,0.9944,0.9943,0.9947,0.9943,0.9937,0.9937,0.9924,0.9933,0.9914,0.9925,0.9913,0.9914,0.991,0.9911,0.9911,0.9891,0.9919,0.9968,0.9972,0.991,0.991,0.991,0,0.996,0.9966,0.9978,0.9977,0.9968,0.9974,0.997,0.9965,0.9966,0.9965,0.9966,0.9966,0.9967,0.9967,0.9954,0.9942,0.9966,0.9947,0.9961,0.9961,0.9967,0.9967,1.0016,0.9969,0.9969,0.9969,0.9968,0,1.0001,1.0014,0.9995,1.0003,1.0016,1.0,1.0013,1.0008,1.0003,1.0008,0.9991,0.9996,0.998,0.9983,0.9973,0.9983,0.9983,0.9978,0.9975,0.998,0.998,0.998,0.9977,0.997,0.9969,0.9969,0.9969,0,1.0047,1.0035,1.0047,1.0036,1.0034,1.0044,1.0035,1.0041,1.0032,1.0039,1.004,1.0027,1.0029,1.0017,1.0018,1.0011,1.0025,1.0019,1.0027,1.0025,1.0039,1.0038,1.0089,1.0095,1.0045,1.0045,1.0045,0,1.0073,1.0082,1.0073,1.0075,1.0072,1.0076,1.0077,1.0062,1.0063,1.0058,1.0064,1.0065,1.0066,1.0071,1.0061,1.0061,1.0054,1.0072,1.0054,1.0057,1.0053,1.0053,1.0053,1.0076,1.0077,1.0077,1.0078,0,1.0121,1.0115,1.0117,1.0116,1.0117,1.0116,1.0114,1.0116,1.01,1.0102,1.0104,1.0104,1.0104,1.0105,1.0103,1.0099,1.0085,1.0083,1.0086,1.0091,1.0094,1.0091,1.0036,1.0082,1.0082,1.0081,1.0081,1.0081,1.0158,1.0164,1.0158,1.016,1.0157,1.0154,1.0159,1.0151,1.0153,1.0151,1.0142,1.0146,1.014,1.0135,1.0132,1.0134,1.0125,1.013,1.0131,1.0132,1.0134,1.0094,1.0133,1.0133,1.0133,1.0133,1.0133,0,1.0204,1.0199,1.0201,1.0198,1.0199,1.0186,1.0182,1.0184,1.0188,1.0183,1.0183,1.0185,1.0185,1.0175,1.0174,1.0178,1.0171,1.0178,1.0177,1.0176,1.0143,1.014,1.0183,1.0183,1.0183,1.0183,1.0183,1.0183,1.0228,1.0238,1.0231,1.0238,1.0232,1.0236,1.0235,1.0232,1.0228,1.0231,1.0231,1.0224,1.0217,1.0215,1.0215,1.0211,1.0211,1.022,1.0215,1.0184,1.0179,1.0174,1.0171,1.022,1.022,1.0248,1.0248,1.0248]}]]